• In Latvia
  • List of Countries
  • For 7 days
  • Water Temperature
  • Satellite Maps
  • Weather Map
  • Weather Widgets
  • user-avatar
    Login

    Hourly Weather Polomenicy

    Today, 24 September, Monday

    Time Temperature Precipitation Wind Pressure Humidity
    00:00 +7°C° 0 mm 3 mps 741 mmHg 91%
    01:00 +7°C° 0 mm 3 mps 741 mmHg 92%
    02:00 +7°C° 0 mm 2 mps 741 mmHg 94%
    03:00 +7°C° 0 mm 2 mps 741 mmHg 94%
    04:00 +6°C° 0 mm 2 mps 741 mmHg 95%
    05:00 +6°C° 0 mm 2 mps 741 mmHg 95%
    06:00 +7°C° 0 mm 2 mps 741 mmHg 92%
    07:00 +8°C° 0 mm 2 mps 741 mmHg 88%
    08:00 +9°C° 0 mm 2 mps 741 mmHg 84%
    09:00 +9°C° 0.2 mm 3 mps 741 mmHg 83%
    10:00 +10°C° 0.2 mm 3 mps 740 mmHg 82%
    11:00 +10°C° 0.2 mm 3 mps 740 mmHg 81%
    12:00 +10°C° 0.6 mm 3 mps 740 mmHg 84%
    13:00 +10°C° 0.6 mm 3 mps 739 mmHg 86%
    14:00 +10°C° 0.6 mm 3 mps 738 mmHg 89%
    15:00 +9°C° 1.2 mm 3 mps 738 mmHg 90%
    16:00 +9°C° 1.2 mm 3 mps 737 mmHg 91%
    17:00 +7°C° 1.2 mm 4 mps 736 mmHg 93%
    18:00 +7°C° 1.6 mm 4 mps 735 mmHg 93%
    19:00 +7°C° 1.6 mm 4 mps 734 mmHg 93%
    20:00 +6°C° 1.6 mm 5 mps 733 mmHg 94%
    21:00 +6°C° 2.7 mm 5 mps 732 mmHg 94%
    22:00 +6°C° 2.7 mm 5 mps 731 mmHg 94%
    23:00 +6°C° 2.7 mm 5 mps 731 mmHg 95%

    Tomorrow, 25 September, Tuesday

    Time Temperature Precipitation Wind Pressure Humidity
    00:00 +6°C° 1.9 mm 5 mps 731 mmHg 94%
    01:00 +6°C° 1.9 mm 5 mps 731 mmHg 94%
    02:00 +6°C° 1.9 mm 5 mps 731 mmHg 93%
    03:00 +5°C° 1.1 mm 6 mps 731 mmHg 92%
    04:00 +5°C° 1.1 mm 6 mps 732 mmHg 91%
    05:00 +5°C° 1.1 mm 7 mps 732 mmHg 91%
    06:00 +5°C° 0.5 mm 7 mps 733 mmHg 89%
    07:00 +5°C° 0.5 mm 7 mps 734 mmHg 87%
    08:00 +5°C° 0.5 mm 8 mps 735 mmHg 86%
    09:00 +5°C° 0.2 mm 8 mps 735 mmHg 83%
    10:00 +6°C° 0.2 mm 8 mps 736 mmHg 80%
    11:00 +6°C° 0.2 mm 8 mps 737 mmHg 78%
    12:00 +6°C° 0.1 mm 7 mps 738 mmHg 74%
    13:00 +8°C° 0.1 mm 7 mps 739 mmHg 71%
    14:00 +8°C° 0.1 mm 7 mps 740 mmHg 68%
    15:00 +8°C° 0 mm 7 mps 741 mmHg 69%
    16:00 +7°C° 0 mm 6 mps 741 mmHg 69%
    17:00 +5°C° 0 mm 6 mps 742 mmHg 70%
    18:00 +5°C° 0 mm 6 mps 743 mmHg 73%
    19:00 +4°C° 0 mm 6 mps 744 mmHg 75%
    20:00 +5°C° 0 mm 5 mps 745 mmHg 77%
    21:00 +3°C° 0 mm 5 mps 746 mmHg 76%
    22:00 +3°C° 0 mm 5 mps 747 mmHg 75%
    23:00 +2°C° 0 mm 5 mps 747 mmHg 74%

    Day after tomorrow, 26 September, Wednesday

    Time Temperature Precipitation Wind Pressure Humidity
    00:00 +2°C° 0 mm 5 mps 748 mmHg 73%
    01:00 +1°C° 0 mm 4 mps 749 mmHg 73%
    02:00 +1°C° 0 mm 4 mps 749 mmHg 73%
    03:00 0°C° 0 mm 4 mps 750 mmHg 74%
    04:00 0°C° 0 mm 4 mps 750 mmHg 76%
    05:00 0°C° 0 mm 4 mps 751 mmHg 77%
    06:00 +1°C° 0 mm 4 mps 751 mmHg 77%
    07:00 +3°C° 0 mm 4 mps 751 mmHg 76%
    08:00 +4°C° 0 mm 4 mps 752 mmHg 76%
    09:00 +5°C° 0 mm 4 mps 752 mmHg 73%
    10:00 +7°C° 0 mm 4 mps 752 mmHg 70%
    11:00 +8°C° 0 mm 4 mps 752 mmHg 67%
    12:00 +10°C° 0 mm 4 mps 751 mmHg 64%
    13:00 +10°C° 0 mm 5 mps 751 mmHg 60%
    14:00 +10°C° 0 mm 5 mps 750 mmHg 57%
    15:00 +9°C° 0 mm 5 mps 750 mmHg 59%
    16:00 +8°C° 0 mm 5 mps 749 mmHg 62%
    17:00 +8°C° 0 mm 4 mps 748 mmHg 64%
    18:00 +7°C° 0.2 mm 5 mps 747 mmHg 67%
    19:00 +5°C° 0.2 mm 6 mps 747 mmHg 70%
    20:00 +5°C° 0.2 mm 7 mps 746 mmHg 73%
    21:00 +5°C° 0.9 mm 7 mps 745 mmHg 77%
    22:00 +4°C° 0.9 mm 7 mps 744 mmHg 81%
    23:00 +4°C° 0.9 mm 8 mps 742 mmHg 84%

    27 September, Thursday

    Time Temperature Precipitation Wind Pressure Humidity
    00:00 +4°C° 1.2 mm 7 mps 741 mmHg 86%
    01:00 +4°C° 1.2 mm 7 mps 740 mmHg 87%
    02:00 +4°C° 1.2 mm 7 mps 739 mmHg 88%
    03:00 +5°C° 0.8 mm 7 mps 739 mmHg 89%
    04:00 +5°C° 0.8 mm 6 mps 738 mmHg 90%
    05:00 +5°C° 0.8 mm 6 mps 738 mmHg 91%
    06:00 +7°C° 0.4 mm 6 mps 738 mmHg 88%
    07:00 +7°C° 0.4 mm 5 mps 738 mmHg 86%
    08:00 +8°C° 0.4 mm 5 mps 738 mmHg 83%
    09:00 +8°C° 0.2 mm 5 mps 738 mmHg 78%
    10:00 +9°C° 0.2 mm 6 mps 738 mmHg 72%
    11:00 +10°C° 0.2 mm 6 mps 738 mmHg 66%
    12:00 +10°C° 0.1 mm 6 mps 739 mmHg 63%
    13:00 +10°C° 0.1 mm 6 mps 739 mmHg 60%
    14:00 +10°C° 0.1 mm 6 mps 739 mmHg 58%
    15:00 +9°C° 0 mm 5 mps 739 mmHg 61%
    16:00 +8°C° 0 mm 4 mps 740 mmHg 64%
    17:00 +8°C° 0 mm 3 mps 740 mmHg 67%
    18:00 +8°C° 0 mm 3 mps 741 mmHg 70%
    19:00 +7°C° 0 mm 3 mps 741 mmHg 72%
    20:00 +5°C° 0 mm 3 mps 741 mmHg 75%
    21:00 +5°C° 0 mm 3 mps 742 mmHg 76%
    22:00 +4°C° 0 mm 3 mps 742 mmHg 78%
    23:00 +4°C° 0 mm 3 mps 742 mmHg 80%

    28 September, Friday

    Time Temperature Precipitation Wind Pressure Humidity
    00:00 +4°C° 0 mm 3 mps 742 mmHg 82%
    01:00 +3°C° 0 mm 3 mps 741 mmHg 84%
    02:00 +3°C° 0 mm 3 mps 741 mmHg 87%
    03:00 +4°C° 0.8 mm 4 mps 739 mmHg 88%
    04:00 +5°C° 0.8 mm 4 mps 738 mmHg 88%
    05:00 +6°C° 0.8 mm 5 mps 736 mmHg 89%
    06:00 +7°C° 2.4 mm 6 mps 735 mmHg 89%
    07:00 +9°C° 2.4 mm 7 mps 733 mmHg 89%
    08:00 +11°C° 2.4 mm 8 mps 731 mmHg 89%
    09:00 +10°C° 0.7 mm 8 mps 731 mmHg 86%
    10:00 +10°C° 0.7 mm 8 mps 731 mmHg 83%
    11:00 +10°C° 0.7 mm 8 mps 732 mmHg 80%
    12:00 +7°C° 0.2 mm 8 mps 733 mmHg 80%
    13:00 +6°C° 0.2 mm 8 mps 735 mmHg 80%
    14:00 +5°C° 0.2 mm 8 mps 737 mmHg 80%
    15:00 +5°C° 0 mm 7 mps 738 mmHg 80%
    16:00 +6°C° 0 mm 5 mps 740 mmHg 80%
    17:00 +6°C° 0 mm 4 mps 741 mmHg 80%
    18:00 +5°C° 0 mm 4 mps 742 mmHg 82%
    19:00 +5°C° 0 mm 4 mps 742 mmHg 83%
    20:00 +5°C° 0 mm 4 mps 743 mmHg 85%
    21:00 +4°C° 0 mm 4 mps 744 mmHg 84%
    22:00 +4°C° 0 mm 4 mps 744 mmHg 84%
    23:00 +3°C° 0 mm 4 mps 745 mmHg 83%

    29 September, Saturday

    Time Temperature Precipitation Wind Pressure Humidity
    00:00 +3°C° 0 mm 4 mps 746 mmHg 84%
    01:00 +1°C° 0 mm 4 mps 746 mmHg 85%
    02:00 +2°C° 0 mm 3 mps 747 mmHg 87%
    03:00 +1°C° 0 mm 3 mps 748 mmHg 88%
    04:00 +1°C° 0 mm 3 mps 748 mmHg 89%
    05:00 +1°C° 0 mm 3 mps 749 mmHg 91%
    06:00 +1°C° 0 mm 4 mps 749 mmHg 86%
    07:00 +1°C° 0 mm 4 mps 750 mmHg 82%
    08:00 +3°C° 0 mm 4 mps 751 mmHg 77%
    09:00 +3°C° 0 mm 5 mps 751 mmHg 70%
    10:00 +5°C° 0 mm 5 mps 752 mmHg 62%
    11:00 +6°C° 0 mm 5 mps 752 mmHg 55%
    12:00 +6°C° 0 mm 5 mps 753 mmHg 53%
    13:00 +6°C° 0 mm 5 mps 753 mmHg 51%
    14:00 +6°C° 0 mm 5 mps 753 mmHg 49%
    15:00 +5°C° 0 mm 4 mps 754 mmHg 55%
    16:00 +4°C° 0 mm 3 mps 754 mmHg 61%
    17:00 +4°C° 0 mm 2 mps 754 mmHg 67%
    18:00 +4°C° 0 mm 2 mps 755 mmHg 70%
    19:00 +3°C° 0 mm 2 mps 755 mmHg 73%
    20:00 +2°C° 0 mm 3 mps 755 mmHg 77%
    21:00 +2°C° 0 mm 3 mps 756 mmHg 77%
    22:00 +3°C° 0 mm 3 mps 756 mmHg 77%
    23:00 +3°C° 0 mm 3 mps 756 mmHg 78%
    Show more

    3.3.7123123